THORAD AGENA D DEB, 20360

Orbit data source: Space-Track

THORAD AGENA D DEB, 20360 is space debris in SSO originally from a launch on Wed, 08 Apr 1970 UTC launched from the Air Force Western Test Range (AFWTR). Debris objects in space refer to the collection of defunct objects orbiting the Earth. Examples of debris include non-operational satellites, rocket bodies, and fragments generated from explosions, collisions, or faulty payload assembly.

Loading next visibility...
Identifier
20360, 1970-025QF
Orbit
SSO
Country
Flag of USUS
Related business
Manufacturer
Unknown
Mission
Spacecraft
Bus & Motor
Unknown
Mass
Unknown
Launch date (UTC)
1970-04-08 (56 years ago)
Launch vehicle
Unknown
Launch site
Air Force Western Test Range (AFWTR)
Object type
Payload
Rocket body
Debris
Shape & HBR
Unknown shape, 0.1 m
Radar Cross Section
Small (<0.1 m²)

Expand to show TLE details & history
Last TLE update: 12 hours ago

TLE from 12 hours ago
0 THORAD AGENA D DEB
1 20360U 70025QF  25287.26473291  .00011110  00000-0  61004-2 0  9990
2 20360 100.4445 198.6040 0016442 161.1877 350.4812 14.11848457797703
Epoch: 2025-10-14T06:21Z
TLE epoch observation values (Epoch: 2025-10-14T06:21:12.923Z)
Latitude
27.89487°
Longitude
-94.18532°
Altitude
844.678 km
Speed
7.439 km/s
True Right ascension
01h 36m 41s
True Declination
27° 45' 17"
Sunlit
Object was in full shadow at epoch
Visualization orbit readout
Latitude
Unknown
Longitude
Unknown
Altitude
Unknown
Speed
Unknown
Apparent Right ascension
Unknown
Apparent Declination
Unknown
Sunlit
N/A
Visualization observer readout
Local Sidereal Time
12:53:56
Azimuth
Unknown
Elevation
Unknown
Doppler factor
Unknown
Orbital elements
Apogee altitude
862.198 km
Perigee altitude
838.428 km
Semi-major axis
7,228.45 km
Eccentricity
0.00164
Inclination
100.4445°
RAAN
198.604°
Arg. of periapsis
161.1877°
True anomaly
350.44998°
Mean anomaly
350.4812°
Eccentric anomaly
350.4656°
Mean motion
3.53163 °/min
Orbital period
101.94 mins
BSTAR
0.0061004

Documentation

Showing up to 5 results
|